Regional Weather Roundup
Issued by NWS Northern Indiana

Home | Current Version | Previous Version | Text Only | Print | Product List | Glossary Off
Versions: 1 2 3 4 5 6 7 8 9 10 11 12 13 14 15 16 17 18 19 20 21 22 23 24 25 26 27 28 29 30 31 32 33 34 35 36 37 38 39 40 41 42 43 44 45 46 47 48 49 50

000
ASUS43 KIWX 220000
RWRIWX

KIWX WEATHER ROUNDUP
NATIONAL WEATHER SERVICE NORTHERN INDIANA
700 PM EST WED FEB 21 2018

NOTE: "FAIR" INDICATES FEW OR NO CLOUDS BELOW 12,000 FEET WITH NO
SIGNIFICANT WEATHER AND/OR OBSTRUCTIONS TO VISIBILITY.

* THESE STATIONS ARE NOT UNDER NWS QUALITY CONTROL. THEY ALSO MAY NOT
  REPORT WEATHER SUCH AS PRECIPITATION OR FOG.

INZ001>027-220100-
NORTHERN INDIANA

CITY           SKY/WX    TMP DP  RH WIND       PRES   REMARKS
GARY*          CLOUDY    32  25  74 N12G23    30.62R WCI  23
MICHIGAN CITY* FAIR      30  27  86 N7        30.61R WCI  23
SOUTH BEND     MOCLDY    30  26  85 N7        30.59R WCI  23
6HR MIN TEMP:  30; 6HR MAX TEMP:  32;

ELKHART*       CLOUDY    32  28  86 N6        30.59R WCI  26
GOSHEN         CLOUDY    34  29  82 VRB7      30.57R WCI  28
6HR MIN TEMP:  33; 6HR MAX TEMP:  34;

MONTICELLO*    CLOUDY    33  29  86 NE9       30.54S WCI  25
6HR MIN TEMP:  33; 6HR MAX TEMP:  34;

WARSAW*        CLOUDY    34  30  86 N5        30.57R WCI  30
FORT WAYNE     MOCLDY    38  32  79 NE8       30.55R
6HR MIN TEMP:  37; 6HR MAX TEMP:  38;

PERU/GRISSOM   CLOUDY    35  35  99 NE12      30.54R WCI  27
6HR MIN TEMP:  35; 6HR MAX TEMP:  36;


$$
INZ028>050-220100-
CENTRAL INDIANA

CITY           SKY/WX    TMP DP  RH WIND       PRES   REMARKS
LAFAYETTE      MOCLDY    34  30  85 N9        30.55R WCI  27
6HR MIN TEMP:  33; 6HR MAX TEMP:  35;

KOKOMO*        CLOUDY    36  32  85 NE13      30.54R
6HR MIN TEMP:  35; 6HR MAX TEMP:  37;

MUNCIE*        CLOUDY    40  35  83 NE9       30.53R
6HR MIN TEMP:  39; 6HR MAX TEMP:  40; 6HR PCP: TRACE;

INDIANAPOLIS   LGT RAIN  37  34  89 NE13      30.50F
6HR MIN TEMP:  37; 6HR MAX TEMP:  38; 6HR PCP: TRACE;


$$
MIZ043>046-050>051-056>058-064>065-071>073-077>080-220100-
SOUTHWEST LOWER MICHIGAN

CITY           SKY/WX    TMP DP  RH WIND       PRES   REMARKS
BATTLE CREEK   FAIR      33  27  78 N5        30.58R WCI  29
6HR MIN TEMP:  33; 6HR MAX TEMP:  35;

BENTON HARBOR  FAIR      30  23  75 VRB6      30.61R WCI  24
6HR MIN TEMP:  30; 6HR MAX TEMP:  32;

COLDWATER*     FAIR      34  31  89 N6        30.57R WCI  29
6HR MIN TEMP:  34; 6HR MAX TEMP:  36;

HILLSDALE*     FAIR      34  30  86 NE6       30.55R WCI  29
HOLLAND        FAIR      30  22  72 NW7       30.61R WCI  23
6HR MIN TEMP:  30; 6HR MAX TEMP:  34;

GRAND RAPIDS   CLOUDY    33  25  72 NW7       30.59R WCI  27
6HR MIN TEMP:  33; 6HR MAX TEMP:  36;

KALAMAZOO      CLOUDY    34  27  75 N3        30.58R
6HR MIN TEMP:  34; 6HR MAX TEMP:  35;

THREE RIVERS*  MOCLDY    34  29  83 N3        30.58R
6HR MIN TEMP:  33; 6HR MAX TEMP:  35;


$$
OHZ001>008-015>018-024>025-220100-
NORTHWEST OHIO

CITY           SKY/WX    TMP DP  RH WIND       PRES   REMARKS
DEFIANCE       MOCLDY    39  33  79 NE10      30.56R
6HR MIN TEMP:  38; 6HR MAX TEMP:  40;

FINDLAY        CLOUDY    38  33  82 E10       30.54R
6HR MIN TEMP:  38; 6HR MAX TEMP:  42; 6HR PCP:  0.02;

TOLEDO EXPRESS CLOUDY    38  36  92 E10       30.57R
6HR MIN TEMP:  38; 6HR MAX TEMP:  41;

TOLEDO METCALF CLOUDY    36  32  85 E9        30.59R
6HR MIN TEMP:  36; 6HR MAX TEMP:  42; 6HR PCP: TRACE;

LIMA           CLOUDY    39  37  92 NE12      30.53R
6HR MIN TEMP:  38; 6HR MAX TEMP:  40; 6HR PCP:  0.04;


$$
AND FOR LAKE MICHIGAN COASTAL AND OPEN LAKE BUOY OBSERVATIONS

STATION/POSITION TEMP    WIND        PRES    VSBY  WAVE
                 AIR SEA DIR/SP/G                  HT/PER
                 (F)     (DEG/KT/KT) (MB)    (MI)  (FT/S)
CALUMET HARBOR    29     360/ 12/ 15 1036.0R
MICHIGAN CITY     29      10/ 17/ 19   N/A
BURNS HARBOR      30      40/ 16/ 18 1036.6R
SAINT JOSEPH      30      30/  7/ 14 1036.6

$$
&&



USA.gov is the U.S. government's official web portal to all federal, state and local government web resources and services.